Theta_e
291 292 292 292 292 292 292 292 293 293 293 293 294 294 295 295 295 296 297 298 299 300 301 303 304 305 307 307 308 309 310 312 315 317 319 320 321 321 322 322 321 321
291 290 290 291 291 291 291 291 291 291 291 291 292 292 293 294 294 295 295 295 296 297 297 299 300 301 303 305 306 307 308 308 309 311 313 315 317 318 318 318 318 318
290 290 290 290 290 290 290 290 290 290 290 290 290 291 291 292 292 293 293 294 295 296 296 296 297 298 299 300 302 304 305 306 307 307 308 309 312 314 316 317 317 317
289 289 289 289 289 289 289 289 289 289 289 289 290 290 290 290 291 291 292 292 293 294 294 295 296 296 297 297 298 300 301 303 304 305 306 306 307 310 314 316 317 318
287 287 287 287 287 287 288 288 288 288 288 289 289 289 289 289 289 290 290 291 291 291 292 293 293 294 295 295 296 296 297 299 300 302 303 304 305 306 308 311 313 315
286 286 286 286 286 286 286 287 287 287 287 287 288 288 288 288 288 288 289 289 289 290 290 290 291 291 292 293 294 294 295 296 297 298 300 301 303 303 304 305 306 308
284 284 284 284 285 285 285 285 285 285 286 286 286 286 287 287 287 287 287 288 288 288 288 289 289 289 290 290 291 292 292 293 294 295 296 298 299 301 302 302 303 304
283 283 283 283 283 283 284 284 284 284 284 285 285 285 285 286 286 286 286 287 287 287 287 287 288 288 288 289 289 289 290 290 291 292 293 294 296 297 298 300 301 302
282 282 282 282 283 283 283 283 283 283 283 284 284 284 284 284 285 285 285 285 286 286 286 286 286 287 287 287 288 288 288 289 289 290 290 291 292 293 295 296 298 299
282 282 282 282 282 282 282 283 283 283 283 283 283 283 283 284 284 284 284 285 285 285 285 285 286 286 286 286 286 287 287 287 288 288 288 289 290 291 292 293 294 296
282 282 282 282 282 282 282 282 282 283 283 283 283 283 283 283 283 284 284 284 284 285 285 285 285 285 285 286 286 286 286 286 287 287 287 288 288 289 289 290 291 292
281 281 281 281 281 281 281 282 282 282 282 283 283 283 283 283 283 283 284 284 284 284 284 284 285 285 285 285 285 285 285 286 286 286 286 287 287 287 288 288 289 290
281 281 281 281 281 281 281 281 281 282 282 282 282 282 283 283 283 283 283 283 284 284 284 284 284 284 284 284 285 285 285 285 285 285 286 286 286 287 287 287 288 288
280 280 280 280 280 280 281 281 281 281 281 282 282 282 282 282 282 282 283 283 283 283 283 284 284 284 284 284 284 284 284 285 285 285 285 285 286 286 286 287 287 287
280 280 280 280 280 280 280 281 281 281 281 281 281 281 281 282 282 282 282 282 282 282 283 283 283 283 283 283 283 284 284 284 284 285 285 285 285 285 285 286 286 286
279 279 279 279 280 280 280 280 280 280 281 281 281 281 281 281 281 281 281 281 281 282 282 282 282 282 283 283 283 283 284 284 284 284 284 284 284 284 284 285 285 285
279 279 279 279 279 279 279 279 279 280 280 280 280 280 281 281 281 281 281 281 281 281 281 281 281 281 282 282 283 283 283 284 284 284 284 284 284 284 284 283 284 284
279 279 279 279 279 279 278 278 278 279 279 279 279 279 279 280 280 280 280 280 280 281 281 281 281 281 281 281 282 283 283 284 284 284 284 284 284 284 284 283 283 284
279 279 279 279 278 278 278 278 278 278 278 278 278 278 278 279 279 279 279 280 280 280 280 281 281 281 281 281 281 282 282 283 283 283 283 284 284 285 284 284 284 284
278 278 278 278 278 278 278 278 278 278 278 277 278 278 278 278 278 278 278 279 279 279 279 280 280 281 281 281 281 281 282 283 283 284 284 284 284 285 285 284 284 284
278 278 278 278 278 278 278 278 278 277 277 277 277 277 277 277 277 278 278 278 278 278 278 279 279 280 280 281 281 281 282 283 283 283 284 284 284 284 284 284 284 283
277 277 277 277 277 277 277 277 277 277 277 277 277 277 277 277 277 277 277 277 277 277 278 278 279 279 279 280 280 280 282 282 282 282 282 282 283 283 283 283 283 283
277 277 277 277 276 277 277 277 277 277 277 276 276 277 277 277 277 277 277 277 277 277 277 277 278 278 279 279 279 280 281 281 281 281 281 281 281 282 282 282 282 281
276 276 276 276 276 276 276 276 276 276 276 276 276 276 276 276 276 276 277 276 276 276 277 277 277 278 278 278 279 280 280 280 280 280 280 280 280 280 280 280 280 280
276 276 276 276 276 276 276 276 276 276 276 276 276 275 276 276 276 276 276 276 276 276 276 276 277 277 278 277 278 279 279 278 278 279 278 278 278 278 278 278 278 279
276 276 276 275 275 275 275 275 275 275 275 275 275 275 275 275 275 275 275 276 276 275 276 276 276 277 277 276 277 278 278 277 277 277 276 276 277 277 277 277 277 278
Wind_Speed
33 32 32 32 31 31 31 31 31 31 30 30 30 29 29 28 27 26 25 23 22 22 22 22 22 22 23 22 22 23 23 23 23 24 24 23 22 23 24 26 27 28
32 33 33 32 32 32 32 32 32 32 31 31 31 31 30 30 29 29 28 27 26 25 24 24 23 24 24 24 24 24 24 24 24 23 24 24 24 24 24 25 26 27
32 32 32 32 32 33 33 33 32 32 32 32 32 32 32 32 31 31 31 30 30 29 27 27 26 25 25 26 26 26 25 25 25 25 25 24 24 24 23 23 24 26
33 32 32 32 31 31 32 32 32 32 33 33 33 34 34 34 34 34 33 33 32 32 31 30 29 29 28 27 27 27 27 27 27 27 27 26 24 24 23 23 23 24
33 33 32 32 32 32 32 32 32 32 32 33 33 34 34 35 35 35 36 35 35 35 34 33 32 32 31 31 30 29 29 29 29 28 29 28 27 26 25 26 26 26
35 34 33 33 32 32 32 32 33 33 33 33 33 33 34 34 35 36 36 37 37 37 37 36 35 34 34 33 33 32 32 32 31 31 30 30 29 29 28 28 28 28
37 37 36 36 35 34 33 33 33 33 33 33 33 34 34 34 35 35 36 37 37 38 38 38 38 37 36 36 35 35 34 34 34 34 33 31 31 31 30 30 30 30
38 38 37 38 38 37 36 36 35 35 34 34 34 34 34 34 35 35 36 36 37 37 38 38 39 39 38 38 38 37 36 36 36 36 35 34 33 33 32 32 32 32
38 38 38 38 38 37 38 38 38 37 37 37 37 36 35 35 35 35 35 35 36 37 37 37 38 39 39 39 39 39 38 38 38 38 37 37 36 35 35 34 34 34
39 38 38 38 37 37 38 39 39 39 39 38 38 38 37 37 36 35 35 35 35 35 36 37 37 38 38 39 40 40 40 40 40 40 39 39 38 37 36 36 36 36
39 38 38 38 37 37 39 40 40 40 39 39 39 38 38 37 37 36 36 35 35 34 35 35 36 36 37 38 39 39 40 41 42 42 41 41 40 39 38 37 37 37
38 38 38 37 37 39 40 40 40 39 39 39 38 39 38 37 37 36 35 35 35 34 34 34 34 34 35 36 37 38 39 40 42 43 43 42 42 41 40 39 38 38
37 37 37 37 38 40 40 39 39 39 38 38 37 37 37 37 36 35 35 34 34 33 33 33 34 34 34 35 35 36 37 39 39 40 42 43 43 42 41 40 40 39
35 36 36 37 38 38 38 38 38 38 38 37 37 36 36 35 35 35 34 34 33 33 33 33 33 34 34 34 34 35 35 35 36 37 39 40 40 41 41 40 39 38
34 35 35 36 37 37 37 37 36 36 36 35 35 35 35 34 34 34 34 34 34 33 33 33 33 33 32 32 33 34 33 33 34 35 37 37 38 40 40 40 39 38
33 34 34 35 36 36 36 36 35 35 35 34 34 34 34 34 34 33 34 34 34 34 33 33 32 32 32 31 30 31 31 32 34 34 35 37 38 39 40 40 40 39
32 33 34 34 34 35 35 35 35 35 35 34 34 34 34 34 34 34 34 34 34 35 35 34 33 33 32 30 29 29 30 31 33 34 35 36 37 38 40 41 40 38
32 32 33 33 34 35 35 36 36 36 36 36 36 36 35 34 34 34 34 34 34 35 35 35 34 34 32 30 29 29 30 31 32 34 35 35 36 37 38 39 38 37
31 32 33 33 34 35 36 36 37 37 37 38 38 38 38 37 36 36 35 35 34 34 35 35 34 34 33 31 30 29 29 30 31 33 34 34 35 36 37 37 35 35
32 32 33 34 34 35 36 37 37 38 38 38 39 39 39 39 39 38 37 36 35 35 35 35 34 33 33 33 31 29 28 30 31 32 33 33 33 33 32 31 31 33
33 33 34 34 35 35 36 37 37 38 39 39 40 40 40 40 40 39 39 38 37 37 36 36 34 33 32 32 30 27 29 31 32 31 32 33 32 29 26 26 29 32
33 34 34 35 36 36 37 37 38 39 39 40 40 40 40 40 40 40 39 39 38 37 37 37 35 33 31 30 27 27 29 31 31 32 33 33 33 31 30 31 33 36
34 34 35 35 36 37 37 38 38 39 39 39 40 41 41 40 40 40 39 39 38 37 36 36 35 33 31 27 24 26 28 29 31 33 34 35 36 36 36 38 39 40
34 34 35 36 36 37 37 38 38 39 39 39 39 40 41 40 40 39 39 39 38 37 36 35 35 34 30 24 22 25 27 29 32 34 36 38 39 39 39 39 39 38
34 34 35 36 37 37 37 38 39 39 39 39 39 39 39 39 39 39 39 38 37 37 36 35 34 34 30 23 22 25 27 29 32 34 35 36 36 36 37 37 36 36
33 34 35 36 36 37 38 38 39 39 39 39 39 39 39 38 38 38 38 38 37 36 36 34 33 34 30 24 23 25 26 28 30 30 30 32 32 32 34 34 34 34
Wind_Direction
359 358 357 355 354 352 350 349 347 346 344 343 342 341 340 339 338 338 336 334 332 330 327 326 324 321 317 314 312 307 303 299 294 291 287 284 286 288 287 288 288 287
356 355 353 351 350 349 347 346 344 342 341 339 338 335 333 332 331 330 330 329 328 327 325 324 323 321 320 317 314 311 309 306 302 298 293 286 282 281 282 285 287 288
353 351 350 349 347 346 344 343 341 339 337 335 334 333 330 328 326 325 324 323 322 321 321 321 320 319 319 317 316 313 311 309 307 305 301 297 291 285 282 285 287 287
352 350 349 347 345 343 341 339 338 337 335 334 332 331 329 328 326 323 322 320 319 318 317 316 316 316 315 315 314 313 312 310 308 307 304 301 299 293 286 284 283 282
351 349 348 346 344 342 340 338 336 334 333 332 330 329 328 327 326 325 323 321 320 318 317 316 315 314 313 312 311 311 311 309 307 306 304 302 301 299 294 289 285 282
351 349 347 345 343 341 339 338 336 335 333 331 329 329 327 326 326 325 324 322 321 320 319 318 317 315 314 312 311 310 309 308 307 305 303 303 302 302 301 298 294 289
352 351 348 346 344 342 340 339 336 335 334 331 330 329 328 326 326 325 324 323 322 321 320 320 318 318 316 314 312 311 310 308 306 304 302 303 302 300 300 301 299 296
350 349 348 346 344 343 342 341 339 337 335 333 331 330 329 328 327 326 325 324 323 322 321 321 320 319 318 317 315 313 312 311 307 305 304 304 302 300 300 300 299 297
348 346 345 344 343 342 341 341 339 338 337 335 334 332 331 330 328 327 326 325 324 324 323 322 321 321 320 319 318 316 315 313 309 308 307 305 303 302 302 301 300 298
346 344 344 343 342 340 339 338 337 337 336 336 334 333 332 331 330 328 327 326 325 324 324 323 323 322 322 321 321 320 317 314 311 310 308 306 305 304 303 303 302 300
344 343 342 343 341 338 337 337 336 335 335 334 333 332 332 331 330 329 328 327 327 326 325 324 323 323 322 322 322 321 319 316 315 313 310 309 307 306 304 304 303 302
342 341 340 340 338 337 337 336 335 335 334 334 333 332 331 331 330 330 329 328 328 328 327 326 325 324 323 323 322 321 320 318 317 315 314 312 310 308 307 306 304 303
341 339 338 338 337 336 336 336 336 335 335 334 334 333 332 332 331 331 330 329 327 327 326 326 325 325 325 325 323 322 320 318 317 316 315 314 313 312 311 309 308 306
339 337 336 336 336 336 336 335 336 336 335 335 335 335 335 334 333 332 331 330 328 327 327 326 325 325 326 326 325 324 322 319 317 315 315 315 314 313 312 312 311 309
337 336 336 336 336 336 336 336 336 335 335 335 335 335 335 335 335 334 333 331 330 329 329 328 327 326 327 327 326 324 322 319 316 315 315 315 313 312 312 313 313 312
338 337 337 337 338 338 338 338 337 336 336 335 334 334 334 333 334 334 334 333 332 331 330 329 328 328 328 328 327 324 321 318 316 315 315 315 315 314 312 312 313 314
339 338 338 339 340 339 339 339 339 339 338 337 335 334 333 333 332 332 332 332 332 331 330 330 329 329 329 327 323 320 318 317 315 314 313 313 314 313 312 313 315 317
339 340 340 341 341 341 341 342 341 341 341 339 338 337 336 335 333 332 331 331 330 329 328 328 328 329 329 325 320 316 316 315 313 311 311 312 313 312 312 315 318 317
340 341 341 341 342 342 342 342 341 341 341 340 339 338 337 336 335 333 332 330 329 327 326 326 326 328 329 327 323 319 316 315 313 312 311 311 312 311 312 315 315 314
340 340 340 341 341 340 340 340 340 340 340 339 338 337 337 336 334 333 332 331 330 328 326 325 325 327 328 326 324 323 322 320 316 313 310 309 311 313 314 313 311 311
339 338 339 339 338 338 338 338 338 338 338 337 336 336 335 334 333 333 332 331 331 329 327 326 325 327 327 323 323 327 327 321 315 311 309 309 310 312 313 312 310 310
336 336 336 336 336 335 335 336 336 336 336 336 334 334 333 333 332 332 330 330 329 328 328 326 325 326 326 323 325 330 327 319 313 311 310 309 308 306 305 305 306 306
334 334 333 333 334 333 333 334 334 334 334 334 332 332 332 331 331 329 328 328 327 327 327 326 325 326 327 328 331 329 324 319 313 312 312 311 309 307 304 302 303 305
331 331 331 331 331 331 332 331 332 332 332 332 331 330 329 329 328 327 327 327 326 326 326 326 326 327 328 332 331 324 322 320 313 311 312 312 311 309 307 306 306 307
329 328 328 328 328 329 330 330 330 330 330 329 329 328 327 327 327 326 325 325 325 325 326 327 328 327 329 332 326 320 321 319 312 310 312 314 315 315 313 312 312 312
327 326 325 326 326 326 326 327 328 328 328 328 327 326 326 325 325 325 324 323 324 325 325 327 328 327 328 330 324 319 323 323 319 319 321 321 321 319 316 316 316 315